User: anonymous   Login
Location: Poughquag
(41.6090°N, 73.6820°W)
Time: 11:19:19
(UTC-04:00)
Language:

Transit 2A - Orbit

View from above orbital plane
View from above orbital plane
View from above satellite
View from above satellite

Ground track
Ground track

The orbit data is extracted from the following two-line orbital elements,

1    45U 60007A   20221.76578792 -.00000076  00000-0  82819-5 0  9997
2    45  66.6925 243.0512 0262939 277.3212  79.8076 14.33683776130208
Epoch (UTC): 08 August 2020 18:22:44
Eccentricity: 0.0262939
inclination: 66.6925°
perigee height: 591 km
apogee height: 967 km
right ascension of ascending node: 243.0512°
argument of perigee: 277.3212°
revolutions per day: 14.33683776
mean anomaly at epoch: 79.8076°
orbit number at epoch: 13020

The dashed part of the orbit path shows where the satellite is in the earth's shadow,  

DLR